CASSIOPE

Last updated on Thu Nov 21 2024 00:03:26 GMT+0000 (Coordinated Universal Time)

1 39265U 13055A 24325.58022953 .00043934 00000+0 81057-3 0 9995 2 39265 80.9494 20.2598 0451947 137.3495 226.3758 14.82174888581456
UTC large
Height (km)
Speed (km/s)
/
Latitude / Longitude
Inclination (degrees)
Orbital Period (minutes)
Azimuth
Elevation
Range (km)
Doppler Factor

Next 0 passes for location: London (51.5072 / 0.1276)

Sorry there are no passes over London.